Location: Garshuizen
(53.3675°N, 6.7248°E)
Time: 20:26:28
(UTC+00:00)

CZ-4B R/B - Pass Details

Date: 15 May 2026
Orbit: 442 x 557 km, 97.8° (Epoch: 8 June)

Event Time Altitude Azimuth Distance (km) Brightness Sun altitude
Exits shadow 20:50:26 12° 169° (S) 1,484 4.5 -9.9°
Maximum altitude 20:53:35 77° 256° (WSW) 479 2.5 -10.2°
Drops below altitude 10° 20:57:06 10° 343° (NNW) 1,646 6.5 -10.5°
Sets 20:59:12 0° 345° (NNW) 2,548 7.7 -10.7°
